Regional Weather Roundup
Issued by NWS

Home | Current Version | Previous Version | Graphics & Text | Print | Product List | Glossary On
Versions: 1 2 3 4 5 6 7 8 9 10 11 12 13 14 15 16 17 18 19 20 21 22 23 24 25 26 27 28 29 30 31 32 33 34 35 36 37 38 39 40 41 42 43 44 45 46 47 48 49 50
000
ASUS43 KMKX 270831
RWRWI

WISCONSIN REGIONAL WEATHER ROUNDUP
NATIONAL WEATHER SERVICE MILWAUKEE/SULLIVAN WI
400 AM CDT WED MAY 27 2015

NOTE: "FAIR" INDICATES FEW OR NO CLOUDS BELOW 12,000 FEET WITH NO
SIGNIFICANT WEATHER AND/OR OBSTRUCTIONS TO VISIBILITY.

WIZ001-002-006>008-014>016-023>028-271000-
NORTHWEST WISCONSIN

CITY           SKY/WX    TMP DP  RH WIND       PRES   REMARKS
SUPERIOR ARPT  CLOUDY    49  49  99 CALM      29.79R
ASHLAND        CLOUDY    52  52 100 SW5       29.77S
HAYWARD        CLOUDY    53  51  93 CALM      29.79S
SIREN          CLOUDY    53  52  98 W5        29.82R
CUMBERLAND     CLOUDY    52  52 100 NW3       29.81R
RICE LAKE      CLOUDY    54  53  94 W5        29.82R
CHETEK         RAIN      55  54  99 CALM      29.80S
LADYSMITH      DRIZZLE   54  53  96 NW3       29.79S
EAU CLAIRE     LGT RAIN  56  55  97 W7        29.79S
MENOMONIE      DRIZZLE   57  56  99 W5        29.80F
NEW RICHMOND   CLOUDY    55  55 100 W6        29.83R FOG
OSCEOLA        CLOUDY    55  55 100 CALM      29.85R
$$

WIZ003>005-009-010-017-018-271000-
NORTH CENTRAL WISCONSIN

CITY           SKY/WX    TMP DP  RH WIND       PRES   REMARKS
MANITOWISH WTR DRIZZLE   51  51 100 N8        29.74R
ARBOR VITAE    RAIN      53  52  95 N10G16    29.72S
WOODRUFF       RAIN      53  52  95 N10G16    29.72S
RHINELANDER    LGT RAIN  53  52  96 NW9       29.71R
EAGLE RIVER    RAIN      52  52 100 N9G18     29.71R
LAND O LAKES   RAIN      52  52  99 N12       29.72S
PHILLIPS       LGT RAIN  50  50 100 NW3       29.75S
TOMAHAWK       RAIN      52  51  95 NW7       29.73R
MEDFORD        DRIZZLE   53  52  97 W8        29.76R
MERRILL        DRIZZLE   55  55  99 NW9       29.72R
$$

WIZ029-030-035-036-043>047-271000-
CENTRAL WISCONSIN

CITY           SKY/WX    TMP DP  RH WIND       PRES   REMARKS
WAUSAU         LGT RAIN  56  55  97 NW13      29.71R FOG
MOSINEE        RAIN      55  55 100 W13       29.74R
MARSHFIELD     LGT RAIN  57  54  89 W10G22    29.76R
STEVENS POINT  HVY RAIN  56  55  97 W12G18    29.74R
WAUPACA        CLOUDY    62  61  94 W12G17    29.73R
WAUTOMA        CLOUDY    63  61  94 W12       29.76R
WISC RAPIDS    LGT RAIN  59  55  87 W10       29.77R
CAMP DOUGLAS   MOCLDY    59  59 100 W8          N/A
$$

WIZ011>013-019>022-031-037>040-048>050-271000-
NORTHEAST WISCONSIN

CITY           SKY/WX    TMP DP  RH WIND       PRES   REMARKS
ANTIGO         CLOUDY    56  55  97 NW14G21   29.69R
SHAWANO        CLOUDY    63  61  93 W13       29.67R
OCONTO         CLOUDY    61  61 100 W7        29.61R
STURGEON BAY   CLOUDY    63  57  82 SW18G29   29.65R
GREEN BAY      CLOUDY    64  59  83 W17G25    29.68R
MANITOWOC      CLOUDY    64  58  80 W16G28    29.71S
APPLETON       CLOUDY    61  55  82 SW15G21   29.73R
CLINTONVILLE   CLOUDY    61  59  94 W14G21    29.69R
OSHKOSH        CLOUDY    63  57  81 SW9G18    29.74R
$$

WIZ032>034-041-042-053>061-271000-
SOUTHWEST WISCONSIN

CITY           SKY/WX    TMP DP  RH WIND       PRES   REMARKS
LA CROSSE      LGT RAIN  61  57  87 NW9       29.81R
SPARTA         CLOUDY    59  58  97 CALM      29.81R
VIROQUA        CLOUDY    58  58 100 W9        29.82R
BOSCOBEL       CLOUDY    61  58  90 S6        29.82R
PRAIRIE DU CHI RAIN      61  57  88 W10       29.83R
PLATTEVILLE    CLOUDY    59  58  97 W3        29.83S
$$

WIZ056-057-062-063-064-067-068-271000-
SOUTH CENTRAL WISCONSIN

CITY           SKY/WX    TMP DP  RH WIND       PRES   REMARKS
REEDSBURG      CLOUDY    60  57  92 W8        29.79S
BARABOO/DELLS  CLOUDY    60  56  88 W8        29.79S
LONE ROCK      CLOUDY    60  58  92 W5        29.82R
MINERAL POINT  LGT RAIN  61  59  94 SW5       29.83R
MADISON        PTCLDY    60  57  89 VRB5      29.79S
MIDDLETON      MOCLDY    59  58  96 W6        29.81S
WATERTOWN      CLOUDY    59  59 100 SW5       29.79S
MONROE         DRIZZLE   61  59  94 SW10      29.82S
JANESVILLE     MOCLDY    61  59  94 SW5       29.81S
$$

WIZ051-052-058>065-066-070>072-271000-
SOUTHEAST WISCONSIN

CITY           SKY/WX    TMP DP  RH WIND       PRES   REMARKS
MILWAUKEE      MOCLDY    64  60  87 SW8       29.80S
WAUKESHA       PTCLDY    59  55  88 SW5       29.81S
MILWAUKEE/TIMM PTCLDY    61  54  77 SW9       29.81R
RACINE         CLOUDY    64  60  87 SW9       29.82S
BURLINGTON     MOCLDY    61  60  96 SW6       29.81S
KENOSHA        MOCLDY    63  61  93 SW9       29.81S
FOND DU LAC    CLOUDY    62  57  83 SW12      29.76S
SHEBOYGAN      CLEAR     62  57  83 SW18      29.75R
WEST BEND      PTCLDY    61  55  82 SW10      29.78S
JUNEAU         PTCLDY    58  56  94 SW9       29.80S
$$

LSZ147-162-271000-
LAKE SUPERIOR

STATION/POSITION TIME  TEMP    WIND        PRES    WAVE
                       AIR SEA DIR/SP/G            HT/PER
                 (UTC) (F)     (DEG/KT/KT) (MB)    (FT/S)
W MID LAKE BUOY  0750   40 37  250/  6/  6 1075.0R   0
DEVILS ISLAND    0800   47     240/ 12/ 12 1079.0S
PORT WING        0640   49     120/  1/  2 1088.0S
SAXON HARBOR     0700   50        CALM     1078.0
$$

LMZ867-665-643>646-271000-
LAKE MICHIGAN

STATION/POSITION TIME  TEMP    WIND        PRES    WAVE
                       AIR SEA DIR/SP/G            HT/PER
                 (UTC) (F)     (DEG/KT/KT) (MB)    (FT/S)
CHAMBERS ISLAND  0700   59     170/  8/ 13 1030.0F
N MID LAKE BUOY  0750   44 37  190/ 17/ 21 1038.0F   4/ 5
NORTHPORT PIER   0700   50     140/  8/  9 1034.0F
SISTER BAY       0718   52     160/ 11/ 12   N/A
ALGOMA LAKESHORE 0738          260/ 28/ 39   N/A
KEWAUNEE LAKESHO 0800   65     230/ 21/ 28 1040.0R
SHEBOYGAN LAKESH 0800   63     230/ 18/ 22 1074.0S
PORT WASHINGTON  0700   64     240/  5/ 12 1088.0R
ATWATER BUOY     0800   61 45  230/ 10/ 14   N/A
MILWAUKEE LAKESH 0800   65     250/  9/ 12   N/A
S MID LAKE BUOY  0750   45 38  190/ 10/ 10   N/A
KENOSHA   LAKESH 0800   65     220/  7/ 10   N/A
$$

TC  - TEMPERATURE IN CELSIUS
VSB - VISIBILITY IN STATUTE MILES
WCI - WIND CHILL INDEX
HX  - HEAT INDEX




USA.gov is the U.S. government's official web portal to all federal, state and local government web resources and services.